ANA154 RJSS-RJCK

Flight info

Callsign ANA154
Flight time 0h 58m
Altitude 37000
Route SDE V22 MQE Z13 AKESI IGAMO
Aircraft B738/M-SDE2E3FGHIRWXY/LB1

Departure

Time 2026-05-07 21:43
Airport Sendai Airport (RJSS)

Arrival

Time 2026-05-07 22:42
Airport Kushiro Airport (RJCK)
Time Latitude Longitude Altitude Speed Heading
2026-05-07 21:23 38.13844 140.92648 15 ft 0 kts 173°
2026-05-07 21:34 38.13846 140.92647 15 ft 2 kts 173°
2026-05-07 21:34 38.13861 140.92645 14 ft 2 kts 172°
2026-05-07 21:35 38.13876 140.92642 14 ft 2 kts 173°
2026-05-07 21:35 38.13891 140.92641 14 ft 2 kts 173°
2026-05-07 21:35 38.13907 140.92638 14 ft 2 kts 173°
2026-05-07 21:35 38.13921 140.92635 14 ft 2 kts 173°
2026-05-07 21:36 38.13932 140.92633 14 ft 2 kts 173°
2026-05-07 21:36 38.13947 140.92624 14 ft 2 kts 133°
2026-05-07 21:36 38.13955 140.92606 13 ft 2 kts 103°
2026-05-07 21:36 38.13956 140.92593 13 ft 1 kts 83°
2026-05-07 21:37 38.13955 140.92586 13 ft 0 kts 82°
2026-05-07 21:40 38.13956 140.92595 13 ft 6 kts 82°
2026-05-07 21:40 38.13993 140.92732 15 ft 22 kts 69°
2026-05-07 21:41 38.14026 140.92926 15 ft 22 kts 83°
2026-05-07 21:41 38.14046 140.93123 15 ft 22 kts 82°
2026-05-07 21:41 38.14101 140.93272 14 ft 20 kts 12°
2026-05-07 21:41 38.14211 140.93237 12 ft 17 kts 302°
2026-05-07 21:42 38.14217 140.93169 14 ft 0 kts 263°
2026-05-07 21:42 38.14211 140.93112 14 ft 33 kts 262°
2026-05-07 21:42 38.14150 140.92526 12 ft 108 kts 263°
2026-05-07 21:43 38.14036 140.91420 23 ft 165 kts 263°
2026-05-07 21:43 38.13875 140.90008 783 ft 167 kts 261°
2026-05-07 21:43 38.13588 140.88692 1617 ft 167 kts 239°
2026-05-07 21:43 38.12814 140.87862 2309 ft 166 kts 202°
2026-05-07 21:44 38.11729 140.87604 2916 ft 172 kts 178°
2026-05-07 21:44 38.10622 140.87898 3550 ft 175 kts 156°
2026-05-07 21:44 38.09673 140.88811 4200 ft 178 kts 125°
2026-05-07 21:44 38.09244 140.90234 4862 ft 179 kts 95°
2026-05-07 21:45 38.09355 140.91739 5502 ft 179 kts 65°
2026-05-07 21:45 38.10141 140.92847 6106 ft 177 kts 25°
2026-05-07 21:45 38.11233 140.93413 6665 ft 182 kts 19°
2026-05-07 21:45 38.12380 140.94002 7056 ft 199 kts 21°
2026-05-07 21:46 38.13634 140.94707 7442 ft 218 kts 22°
2026-05-07 21:46 38.14973 140.95474 7850 ft 236 kts 22°
2026-05-07 21:46 38.16385 140.96280 8408 ft 246 kts 22°
2026-05-07 21:46 38.17847 140.97108 9011 ft 254 kts 21°
2026-05-07 21:47 38.19381 140.97975 9652 ft 260 kts 21°
2026-05-07 21:47 38.21071 140.98930 10204 ft 273 kts 21°
2026-05-07 21:47 38.22812 140.99913 10672 ft 289 kts 21°
2026-05-07 21:47 38.24553 141.00894 11089 ft 305 kts 21°
2026-05-07 21:48 38.26405 141.01942 11479 ft 322 kts 21°
2026-05-07 21:48 38.28372 141.03056 11929 ft 338 kts 21°
2026-05-07 21:48 38.30418 141.04216 12290 ft 356 kts 21°
2026-05-07 21:48 38.32554 141.05428 12684 ft 371 kts 21°
2026-05-07 21:49 38.34809 141.06708 13055 ft 388 kts 21°
2026-05-07 21:49 38.37159 141.08043 13433 ft 403 kts 21°
2026-05-07 21:49 38.39587 141.09425 13974 ft 412 kts 21°
2026-05-07 21:49 38.42079 141.10846 14660 ft 417 kts 21°
2026-05-07 21:50 38.44601 141.12285 15295 ft 424 kts 21°
2026-05-07 21:50 38.47145 141.13739 15958 ft 429 kts 21°
2026-05-07 21:50 38.49747 141.15225 16587 ft 435 kts 21°
2026-05-07 21:50 38.52373 141.16727 17219 ft 440 kts 21°
2026-05-07 21:51 38.55031 141.18247 17801 ft 446 kts 21°
2026-05-07 21:51 38.57753 141.19804 18420 ft 451 kts 21°
2026-05-07 21:51 38.60496 141.21376 19058 ft 455 kts 20°
2026-05-07 21:51 38.63263 141.22961 19698 ft 459 kts 20°
2026-05-07 21:52 38.66084 141.24579 20287 ft 463 kts 20°
2026-05-07 21:52 38.68846 141.26163 20845 ft 468 kts 20°
2026-05-07 21:52 38.71656 141.27777 21406 ft 472 kts 20°
2026-05-07 21:52 38.74482 141.29402 21951 ft 476 kts 20°
2026-05-07 21:53 38.77312 141.31032 22515 ft 478 kts 20°
2026-05-07 21:53 38.80198 141.32695 23012 ft 483 kts 20°
2026-05-07 21:53 38.83058 141.34346 23540 ft 486 kts 20°
2026-05-07 21:53 38.86002 141.36047 24054 ft 490 kts 20°
2026-05-07 21:54 38.89014 141.37787 24557 ft 494 kts 20°
2026-05-07 21:54 38.91956 141.39490 25133 ft 496 kts 20°
2026-05-07 21:54 38.94875 141.41180 25593 ft 500 kts 20°
2026-05-07 21:54 38.97862 141.42911 26088 ft 503 kts 20°
2026-05-07 21:55 39.00952 141.44702 26608 ft 506 kts 20°
2026-05-07 21:55 39.04096 141.46529 27071 ft 509 kts 20°
2026-05-07 21:55 39.07303 141.48393 27529 ft 512 kts 20°
2026-05-07 21:55 39.10516 141.50262 27964 ft 516 kts 20°
2026-05-07 21:56 39.13692 141.52115 28468 ft 517 kts 20°
2026-05-07 21:56 39.16911 141.53993 29043 ft 516 kts 20°
2026-05-07 21:56 39.20101 141.55856 29525 ft 517 kts 20°
2026-05-07 21:56 39.23353 141.57756 30044 ft 518 kts 20°
2026-05-07 21:57 39.26595 141.59654 30565 ft 518 kts 20°
2026-05-07 21:57 39.29811 141.61537 31158 ft 517 kts 20°
2026-05-07 21:57 39.33058 141.63441 31811 ft 513 kts 20°
2026-05-07 21:57 39.36264 141.65324 32355 ft 512 kts 20°
2026-05-07 21:58 39.39493 141.67221 32790 ft 513 kts 20°
2026-05-07 21:58 39.42680 141.69095 33145 ft 515 kts 20°
2026-05-07 21:58 39.45920 141.70999 33582 ft 515 kts 20°
2026-05-07 21:58 39.49118 141.72884 34226 ft 512 kts 20°
2026-05-07 21:59 39.52302 141.74762 34832 ft 509 kts 20°
2026-05-07 21:59 39.55423 141.76605 35372 ft 507 kts 19°
2026-05-07 21:59 39.58520 141.78436 35860 ft 506 kts 20°
2026-05-07 21:59 39.61615 141.80267 36270 ft 506 kts 19°
2026-05-07 22:00 39.64710 141.82098 36787 ft 503 kts 19°
2026-05-07 22:00 39.67787 141.83922 36847 ft 506 kts 19°
2026-05-07 22:00 39.73619 141.87386 36830 ft 494 kts 19°
2026-05-07 22:01 39.79494 141.90878 36823 ft 498 kts 19°
2026-05-07 22:01 39.85393 141.94392 36818 ft 500 kts 20°
2026-05-07 22:02 39.91173 141.98299 36817 ft 501 kts 24°
2026-05-07 22:02 39.96946 142.02657 36823 ft 503 kts 25°
2026-05-07 22:03 40.02819 142.07196 36821 ft 506 kts 26°
2026-05-07 22:03 40.08778 142.11789 36820 ft 504 kts 26°
2026-05-07 22:04 40.14696 142.16324 36823 ft 506 kts 25°
2026-05-07 22:04 40.20463 142.20725 36823 ft 506 kts 25°
2026-05-07 22:05 40.26353 142.25217 36816 ft 506 kts 25°
2026-05-07 22:05 40.32254 142.29726 36817 ft 506 kts 25°
2026-05-07 22:06 40.38189 142.34264 36820 ft 508 kts 25°
2026-05-07 22:06 40.44078 142.38777 36818 ft 508 kts 25°
2026-05-07 22:07 40.50023 142.43343 36810 ft 509 kts 25°
2026-05-07 22:07 40.55923 142.47885 36809 ft 509 kts 25°
2026-05-07 22:08 40.61892 142.52489 36809 ft 509 kts 25°
2026-05-07 22:08 40.67900 142.57134 36805 ft 511 kts 25°
2026-05-07 22:09 40.73709 142.61638 36809 ft 510 kts 25°
2026-05-07 22:09 40.79671 142.66264 36803 ft 512 kts 25°
2026-05-07 22:10 40.85650 142.70914 36800 ft 513 kts 26°
2026-05-07 22:10 40.91690 142.75621 36806 ft 513 kts 25°
2026-05-07 22:11 40.97651 142.80278 36803 ft 512 kts 25°
2026-05-07 22:11 41.03568 142.84909 36803 ft 513 kts 25°
2026-05-07 22:12 41.09549 142.89601 36802 ft 513 kts 25°
2026-05-07 22:12 41.15421 142.94218 36803 ft 515 kts 25°
2026-05-07 22:13 41.21184 142.98761 36805 ft 513 kts 25°
2026-05-07 22:13 41.27192 143.03505 36810 ft 515 kts 25°
2026-05-07 22:14 41.33194 143.08250 36818 ft 516 kts 25°
2026-05-07 22:14 41.39122 143.12942 36812 ft 517 kts 25°
2026-05-07 22:15 41.45155 143.17734 36813 ft 517 kts 25°
2026-05-07 22:15 41.51123 143.22492 36816 ft 516 kts 25°
2026-05-07 22:16 41.57103 143.27271 36810 ft 517 kts 25°
2026-05-07 22:16 41.63028 143.32008 36808 ft 517 kts 25°
2026-05-07 22:17 41.68784 143.36620 36803 ft 517 kts 25°
2026-05-07 22:17 41.74461 143.41185 36571 ft 506 kts 25°
2026-05-07 22:18 41.77314 143.43486 35996 ft 504 kts 25°
2026-05-07 22:18 41.82925 143.48009 34698 ft 505 kts 25°
2026-05-07 22:18 41.85746 143.50284 34009 ft 506 kts 25°
2026-05-07 22:19 41.88611 143.52594 33316 ft 507 kts 25°
2026-05-07 22:19 41.91476 143.54907 32627 ft 509 kts 25°
2026-05-07 22:19 41.94278 143.57172 32043 ft 508 kts 25°
2026-05-07 22:19 41.97079 143.59441 31506 ft 505 kts 25°
2026-05-07 22:20 41.99847 143.61684 30644 ft 505 kts 25°
2026-05-07 22:20 42.02726 143.64026 30277 ft 498 kts 25°
2026-05-07 22:20 42.05519 143.66301 29840 ft 493 kts 26°
2026-05-07 22:20 42.08255 143.68533 29358 ft 489 kts 26°
2026-05-07 22:21 42.11034 143.70801 28903 ft 484 kts 26°
2026-05-07 22:21 42.13787 143.73048 28425 ft 480 kts 26°
2026-05-07 22:21 42.16528 143.75285 27950 ft 477 kts 26°
2026-05-07 22:21 42.19221 143.77484 27443 ft 474 kts 26°
2026-05-07 22:22 42.21825 143.79616 26956 ft 472 kts 26°
2026-05-07 22:22 42.24403 143.81726 26481 ft 469 kts 26°
2026-05-07 22:22 42.27039 143.83884 25979 ft 467 kts 26°
2026-05-07 22:22 42.29656 143.86029 25455 ft 465 kts 26°
2026-05-07 22:23 42.32254 143.88161 24961 ft 462 kts 26°
2026-05-07 22:23 42.34795 143.90248 24516 ft 458 kts 26°
2026-05-07 22:23 42.37329 143.92334 24061 ft 456 kts 26°
2026-05-07 22:23 42.39865 143.94421 23569 ft 454 kts 26°
2026-05-07 22:24 42.42395 143.96506 23112 ft 451 kts 27°
2026-05-07 22:24 42.44888 143.98483 22798 ft 442 kts 23°
2026-05-07 22:24 42.47451 144.00124 22480 ft 431 kts 14°
2026-05-07 22:24 42.50036 144.01024 22026 ft 417 kts 359°
2026-05-07 22:25 42.52656 144.01135 21567 ft 401 kts 346°
2026-05-07 22:25 42.55162 144.00648 21114 ft 390 kts 338°
2026-05-07 22:25 42.57530 143.99834 20590 ft 384 kts 333°
2026-05-07 22:25 42.59785 143.98633 20060 ft 370 kts 322°
2026-05-07 22:26 42.61697 143.96997 19450 ft 354 kts 312°
2026-05-07 22:26 42.63332 143.95024 18837 ft 342 kts 305°
2026-05-07 22:26 42.64818 143.92864 18378 ft 331 kts 301°
2026-05-07 22:26 42.66201 143.90707 18226 ft 320 kts 300°
2026-05-07 22:27 42.67559 143.88531 17834 ft 336 kts 301°
2026-05-07 22:27 42.68934 143.86320 17371 ft 337 kts 301°
2026-05-07 22:27 42.70323 143.84122 16929 ft 334 kts 302°
2026-05-07 22:27 42.71709 143.81941 16454 ft 332 kts 302°
2026-05-07 22:28 42.73114 143.79741 15999 ft 329 kts 302°
2026-05-07 22:28 42.74517 143.77545 15553 ft 326 kts 302°
2026-05-07 22:28 42.75851 143.75452 15097 ft 325 kts 302°
2026-05-07 22:28 42.77217 143.73306 14669 ft 321 kts 302°
2026-05-07 22:29 42.78527 143.71246 14236 ft 319 kts 303°
2026-05-07 22:29 42.79825 143.69202 13813 ft 316 kts 303°
2026-05-07 22:29 42.81166 143.67201 13331 ft 320 kts 308°
2026-05-07 22:29 42.82778 143.65512 12883 ft 329 kts 324°
2026-05-07 22:30 42.84801 143.64606 12490 ft 340 kts 345°
2026-05-07 22:30 42.87014 143.64636 12060 ft 349 kts
2026-05-07 22:30 42.89129 143.65419 11640 ft 353 kts 17°
2026-05-07 22:30 42.91246 143.67076 11205 ft 356 kts 38°
2026-05-07 22:31 42.92703 143.69457 10781 ft 355 kts 61°
2026-05-07 22:31 42.93473 143.72298 10422 ft 348 kts 80°
2026-05-07 22:31 42.93693 143.75198 10245 ft 336 kts 92°
2026-05-07 22:31 42.93435 143.78070 10141 ft 318 kts 110°
2026-05-07 22:32 42.92599 143.80466 9949 ft 302 kts 129°
2026-05-07 22:32 42.91301 143.82413 9605 ft 294 kts 144°
2026-05-07 22:32 42.89749 143.83841 9241 ft 287 kts 156°
2026-05-07 22:32 42.88108 143.85005 8899 ft 285 kts 158°
2026-05-07 22:33 42.86489 143.86174 8611 ft 283 kts 151°
2026-05-07 22:33 42.85104 143.87888 8271 ft 288 kts 131°
2026-05-07 22:33 42.84165 143.90021 7960 ft 290 kts 117°
2026-05-07 22:33 42.83598 143.92386 7618 ft 292 kts 104°
2026-05-07 22:34 42.83302 143.94896 7281 ft 292 kts 97°
2026-05-07 22:34 42.83129 143.97482 7010 ft 289 kts 95°
2026-05-07 22:34 42.83003 143.99976 6773 ft 285 kts 95°
2026-05-07 22:34 42.82876 144.02466 6481 ft 283 kts 95°
2026-05-07 22:35 42.82743 144.04875 6229 ft 279 kts 95°
2026-05-07 22:35 42.82601 144.07289 6071 ft 271 kts 95°
2026-05-07 22:35 42.82460 144.09627 5938 ft 260 kts 95°
2026-05-07 22:35 42.82319 144.11925 5783 ft 249 kts 95°
2026-05-07 22:36 42.82262 144.14035 5658 ft 248 kts 86°
2026-05-07 22:36 42.82643 144.16266 5506 ft 253 kts 63°
2026-05-07 22:36 42.83457 144.18204 5510 ft 255 kts 55°
2026-05-07 22:36 42.84349 144.20085 5342 ft 249 kts 55°
2026-05-07 22:37 42.85197 144.21939 5222 ft 237 kts 57°
2026-05-07 22:37 42.85972 144.23727 5083 ft 227 kts 58°
2026-05-07 22:37 42.86765 144.25472 4786 ft 224 kts 51°
2026-05-07 22:37 42.87800 144.26805 4438 ft 216 kts 24°
2026-05-07 22:38 42.89117 144.27132 3934 ft 205 kts 349°
2026-05-07 22:38 42.90346 144.26579 3369 ft 203 kts 336°
2026-05-07 22:38 42.91564 144.25879 2776 ft 203 kts 339°
2026-05-07 22:38 42.92787 144.25230 2214 ft 201 kts 341°
2026-05-07 22:39 42.94009 144.24600 1870 ft 188 kts 342°
2026-05-07 22:39 42.95110 144.24031 1883 ft 181 kts 341°
2026-05-07 22:39 42.96149 144.23486 1802 ft 173 kts 341°
2026-05-07 22:39 42.97142 144.22966 1549 ft 166 kts 342°
2026-05-07 22:40 42.98093 144.22475 1331 ft 159 kts 342°
2026-05-07 22:40 42.99016 144.21992 1155 ft 153 kts 341°
2026-05-07 22:40 42.99907 144.21521 968 ft 143 kts 341°
2026-05-07 22:40 43.00753 144.21078 817 ft 139 kts 342°
2026-05-07 22:41 43.01596 144.20650 663 ft 140 kts 341°
2026-05-07 22:41 43.02426 144.20177 460 ft 142 kts 341°
2026-05-07 22:41 43.03269 144.19731 296 ft 138 kts 341°
2026-05-07 22:41 43.03959 144.19371 304 ft 77 kts 338°
2026-05-07 22:42 43.04280 144.19209 308 ft 41 kts 357°
2026-05-07 22:42 43.04368 144.19322 312 ft 12 kts 63°
2026-05-07 22:42 43.04402 144.19423 312 ft 11 kts 71°
2026-05-07 22:42 43.04429 144.19519 313 ft 10 kts 68°
2026-05-07 22:43 43.04442 144.19569 314 ft 0 kts 68°